Weather History for KLVS - November, 2012

Change the Weather History Date:

Wednesday, November 28, 2012

  Actual Average Record
Temperature  
Mean Temperature 44 °F -  
Max Temperature 61 °F 47 °F 71 °F (1949)
Min Temperature 28 °F 19 °F -10 °F (1976)
Degree Days  
Heating Degree Days 20    
Moisture  
Dew Point -1 °F    
Average Humidity 18    
Maximum Humidity 32    
Minimum Humidity 5    
Precipitation  
Precipitation 0.00 in - - ()
Sea Level Pressure  
Sea Level Pressure 30.13 in    
Wind  
Wind Speed 8 mph (West)    
Max Wind Speed 14 mph    
Max Gust Speed 18 mph    
Visibility 10 miles    
Events      
Averages and records for this station are not official NWS values.
T = Trace of Precipitation, MM = Missing Value Source: NWS Daily Summary

Daily Weather History Graph

Daily Weather History Graph

Search for Another Location

Airport or City:

Trip Planner

Search our weather history database for the weather conditions in past years. The results will help you decide how hot, cold, wet, or windy it might be!

Date:

Astronomy

Nov. 28, 2012 Rise Set
Actual Time 6:49 AM MST 4:47 PM MST
Civil Twilight 6:21 AM MST 5:15 PM MST
Nautical Twilight 5:50 AM MST 5:47 PM MST
Astronomical Twilight 5:19 AM MST 6:17 PM MST
Moon 5:04 PM MST (11/28) 6:49 AM MST (11/28)
Length of Visible Light 10h 53m
Length of Day
9h 58m
Full, 100% of the Moon is Illuminated
Nov 28
Full
Dec 6
Last Quarter
Dec 13
New
Dec 19
First Quarter
Dec 28
Full

Hourly Weather History & Observations

Time (MST) Temp. Windchill Dew Point Humidity Pressure Visibility Wind Dir Wind Speed Gust Speed Precip Events Conditions
12:53 AM 33.1 °F 24.9 °F -8.0 °F 17% 30.14 in 10.0 mi NNW 10.4 mph - N/A   Clear
1:53 AM 28.9 °F 22.8 °F -9.0 °F 19% 30.15 in 10.0 mi North 5.8 mph - N/A   Clear
2:53 AM 34.0 °F 27.2 °F -8.0 °F 16% 30.13 in 10.0 mi NNW 8.1 mph - N/A   Clear
3:53 AM 32.0 °F 24.8 °F -9.0 °F 17% 30.15 in 10.0 mi NNW 8.1 mph - N/A   Clear
4:53 AM 32.0 °F 24.2 °F -11.0 °F 15% 30.16 in 10.0 mi NNW 9.2 mph - N/A   Clear
5:53 AM 30.9 °F 26.2 °F -11.0 °F 16% 30.24 in 10.0 mi North 4.6 mph - N/A   Clear
6:53 AM 28.9 °F 22.8 °F -11.0 °F 17% 30.25 in 10.0 mi NE 5.8 mph - N/A   Clear
7:53 AM 37.9 °F 32.1 °F -11.9 °F 12% 30.22 in 10.0 mi North 8.1 mph - N/A   Clear
8:53 AM 43.0 °F 39.5 °F -8.0 °F 12% 30.19 in 10.0 mi NNE 5.8 mph - N/A   Clear
9:53 AM 51.1 °F - -5.1 °F 10% 30.18 in 10.0 mi NNE 3.5 mph - N/A   Clear
10:53 AM 55.9 °F - -11.9 °F 6% 30.15 in 10.0 mi South 5.8 mph - N/A   Clear
11:53 AM 57.0 °F - -16.1 °F 5% 30.12 in 10.0 mi South 8.1 mph - N/A   Clear
12:53 PM 57.9 °F - -2.9 °F 8% 30.08 in 10.0 mi South 5.8 mph - N/A   Clear
1:53 PM 61.0 °F - 1.9 °F 9% 30.06 in 10.0 mi SSE 3.5 mph - N/A   Clear
2:53 PM 60.1 °F - -0.0 °F 9% 30.01 in 10.0 mi NE 6.9 mph - N/A   Clear
3:53 PM 57.0 °F - 5.0 °F 12% 30.04 in 10.0 mi WSW 13.8 mph 18.4 mph N/A   Clear
4:12 PM 53.6 °F - 8.6 °F 16% 30.19 in 10.0 mi SW 12.7 mph - N/A   Clear
4:53 PM 50.0 °F - 10.9 °F 21% 30.10 in 10.0 mi SW 12.7 mph - N/A   Clear
5:53 PM 45.0 °F 39.7 °F 10.9 °F 25% 30.14 in 10.0 mi SW 10.4 mph - N/A   Clear
6:53 PM 39.9 °F 35.1 °F 10.0 °F 29% 30.16 in 10.0 mi SSW 6.9 mph - N/A   Clear
7:53 PM 42.1 °F 40.2 °F 10.9 °F 28% 30.11 in 10.0 mi SE 3.5 mph - N/A   Clear
8:53 PM 37.9 °F 30.5 °F 10.0 °F 32% 30.10 in 10.0 mi SSW 11.5 mph - N/A   Clear
9:53 PM 43.0 °F 38.2 °F 10.0 °F 26% 30.05 in 10.0 mi West 8.1 mph - N/A   Clear
10:53 PM 37.9 °F 34.4 °F 10.0 °F 32% 30.05 in 10.0 mi WSW 4.6 mph - N/A   Clear
11:53 PM 39.9 °F 34.5 °F 12.0 °F 32% 30.02 in 10.0 mi SW 8.1 mph - N/A   Clear